Temp
11 11 11 11 11 11 10 10 10 10 10 10 10 9 9 9 9 9 9 9 8 8 8 7 7 7 7 7 7 7 7 8 8 8 8 8 9 9 9 9 8 8 8 8 8 8 9 9 9
11 11 11 11 11 11 10 10 10 10 10 10 9 9 9 9 9 9 8 8 8 8 8 7 7 7 7 8 7 7 7 7 8 8 8 9 9 9 9 8 8 8 8 8 9 9 8 8 9
10 11 11 11 11 11 10 10 10 10 10 9 9 9 9 9 9 8 7 8 8 8 7 7 7 7 7 7 6 6 7 7 7 8 8 9 8 8 8 8 8 8 8 8 8 8 8 8 9
11 11 11 11 11 11 11 10 10 10 10 9 9 9 9 9 9 8 8 8 8 7 7 7 7 7 7 7 7 7 7 6 7 8 8 8 8 8 8 8 8 8 8 8 8 8 8 8 9
12 11 11 11 11 11 10 10 10 10 10 10 10 9 9 8 8 8 7 7 7 7 7 6 7 7 6 6 6 6 6 6 7 8 8 8 8 8 8 8 8 8 8 9 8 8 8 8 8
11 12 11 11 11 10 10 10 10 10 10 10 10 10 9 8 8 8 7 7 7 7 7 7 6 7 6 6 6 6 6 6 8 8 8 8 8 8 8 8 8 9 9 9 9 9 9 8 8
11 12 12 10 10 10 10 10 10 10 10 9 9 10 9 9 8 8 8 8 7 7 7 7 7 7 7 7 6 7 7 7 8 8 8 8 8 8 8 8 9 9 9 9 9 9 9 9 9
11 10 10 10 9 9 9 9 9 10 10 9 9 9 10 9 8 8 8 8 8 7 7 7 7 7 7 7 7 7 7 8 8 8 8 8 8 8 8 9 9 9 9 9 9 9 9 9 9
10 9 10 10 9 9 9 9 9 9 10 9 9 9 9 9 9 8 8 8 8 8 8 7 7 7 7 7 8 8 8 8 8 8 8 8 8 9 9 9 9 9 9 9 9 9 9 9 10
10 10 10 9 9 9 9 9 9 9 9 10 9 9 8 9 8 8 8 8 8 8 8 8 8 8 8 8 8 8 8 8 8 8 8 8 9 9 9 9 9 9 9 9 9 9 10 10 10
10 9 10 10 9 9 9 9 10 9 10 9 9 9 9 8 8 8 8 8 8 8 8 8 8 8 8 8 8 8 8 8 8 8 9 9 9 9 9 9 9 9 9 9 10 10 10 10 10
10 9 8 9 9 9 10 10 9 10 9 9 9 9 9 8 8 8 8 8 8 8 8 8 8 8 8 8 8 8 8 8 8 9 9 9 9 9 9 9 9 9 9 9 10 10 10 10 10
10 9 9 9 9 9 10 10 9 9 9 9 9 9 8 9 9 9 8 8 7 8 8 8 8 8 8 8 8 8 7 8 8 9 9 9 9 9 9 9 9 9 9 9 10 10 10 10 10
10 9 9 9 9 9 8 9 9 10 10 9 9 9 9 9 9 9 8 8 8 8 8 8 8 8 7 7 7 8 7 7 8 8 9 9 9 9 9 9 9 9 10 10 9 10 10 10 10
10 10 9 9 9 9 9 9 10 9 9 9 9 9 9 8 9 8 9 9 8 8 8 7 7 8 8 7 8 8 8 8 8 8 8 8 9 9 9 9 9 10 10 10 10 10 10 11 11
10 10 9 9 9 8 8 9 9 9 9 9 9 9 9 9 8 8 9 8 8 8 8 8 7 7 7 8 8 8 8 8 8 8 8 8 9 9 9 9 9 9 9 9 10 10 11 11 11
11 10 10 10 9 9 9 8 8 9 9 9 9 9 9 9 9 8 8 8 8 8 8 8 8 7 7 7 8 8 8 8 8 8 8 9 9 9 9 9 9 9 9 9 9 10 10 11 11
12 11 11 10 10 9 9 9 9 10 10 9 9 9 10 10 9 9 8 8 8 8 8 8 9 8 8 8 8 8 8 9 8 9 9 8 8 8 9 9 9 9 9 9 9 10 10 10 10
12 12 11 11 10 10 10 10 10 10 10 9 9 9 10 10 9 8 8 8 8 8 8 9 9 8 8 8 8 8 8 8 9 9 9 9 9 8 8 9 9 9 9 9 10 10 10 10 10
12 12 12 11 11 10 10 10 10 10 9 9 9 9 10 9 10 9 9 8 8 8 8 8 9 9 8 8 8 8 8 8 8 9 9 8 9 8 8 8 8 9 9 9 9 9 9 10 10
13 12 12 12 11 10 10 10 10 9 9 9 9 9 9 9 10 10 9 8 8 8 8 7 8 8 8 9 8 8 8 9 9 8 8 8 8 8 9 9 9 9 9 9 9 9 9 10 9
13 13 12 12 12 11 11 11 11 10 10 10 10 10 10 10 10 10 9 9 8 8 8 8 9 9 9 9 8 8 8 8 8 8 8 8 8 8 8 9 9 8 9 9 8 9 9 9 9
13 13 12 11 11 11 11 10 12 12 11 11 10 10 10 10 10 10 10 9 8 8 8 8 9 10 9 9 8 8 8 8 8 8 8 8 8 8 9 9 8 8 8 8 9 9 9 9 9
13 13 12 11 11 10 11 11 12 12 12 11 11 11 10 10 10 10 10 9 9 8 8 8 9 9 10 10 9 9 8 8 8 8 8 9 8 9 9 9 8 8 8 8 9 9 9 9 9
13 13 10 9 8 8 10 10 12 11 11 11 11 11 10 10 10 11 11 10 9 9 8 8 9 9 10 10 10 9 8 9 9 8 8 8 9 9 8 8 9 9 9 9 9 9 9 9 9
13 13 12 9 6 8 9 10 11 11 11 11 11 11 10 11 10 11 11 10 10 9 9 8 9 9 9 10 10 10 9 9 9 8 8 8 9 9 9 9 9 9 9 9 9 9 9 10 10
13 13 12 12 8 8 10 10 11 11 11 11 11 10 10 10 10 10 10 10 10 10 9 9 9 8 9 10 10 10 10 9 9 9 9 9 9 9 9 9 9 9 9 9 9 9 9 10 10
13 13 12 12 8 8 9 10 12 11 10 10 10 9 9 9 9 10 10 10 10 10 10 9 9 9 8 9 10 10 10 10 10 9 9 9 9 9 9 9 9 9 9 9 9 9 9 9 9
12 12 12 11 10 6 5 10 11 11 10 10 9 9 8 9 10 9 10 10 10 10 10 9 9 9 9 9 9 10 10 10 10 10 9 9 9 9 9 9 9 9 9 9 9 9 9 9 9
12 12 11 11 9 9 8 10 10 10 10 10 9 8 7 8 8 9 10 10 10 10 10 10 9 9 9 9 8 9 10 10 10 10 10 9 9 9 9 9 9 9 9 9 9 9 9 9 10
Height
3154 3153 3154 3153 3158 3155 3155 3157 3156 3156 3156 3155 3155 3157 3159 3158 3159 3162 3158 3159 3161 3163 3163 3164 3165 3167 3169 3172 3174 3177 3180 3183 3183 3185 3187 3189 3190 3191 3192 3193 3194 3196 3196 3197 3198 3200 3201 3202 3203
3154 3154 3155 3155 3157 3156 3158 3158 3157 3157 3156 3156 3156 3158 3158 3159 3157 3156 3157 3159 3161 3163 3164 3166 3167 3168 3171 3172 3174 3176 3178 3180 3182 3186 3189 3192 3192 3194 3195 3196 3197 3198 3199 3199 3201 3202 3203 3204 3205
3155 3155 3157 3157 3158 3159 3159 3159 3158 3157 3156 3155 3156 3158 3159 3159 3158 3157 3158 3160 3162 3163 3165 3167 3168 3169 3170 3171 3173 3177 3179 3179 3185 3188 3191 3194 3195 3196 3197 3198 3199 3199 3200 3202 3203 3203 3206 3206 3207
3156 3157 3159 3160 3159 3160 3160 3160 3161 3159 3156 3155 3156 3159 3161 3160 3161 3161 3162 3162 3163 3165 3166 3168 3169 3170 3170 3170 3174 3178 3180 3178 3187 3191 3193 3195 3196 3197 3197 3198 3201 3202 3203 3204 3205 3206 3207 3209 3210
3158 3158 3158 3160 3161 3162 3162 3163 3162 3161 3159 3158 3160 3161 3162 3163 3164 3165 3166 3166 3167 3169 3169 3171 3172 3174 3174 3174 3175 3179 3180 3184 3190 3193 3195 3197 3198 3200 3201 3202 3203 3203 3205 3206 3207 3208 3209 3211 3212
3158 3159 3160 3160 3162 3163 3163 3164 3164 3164 3161 3161 3162 3164 3165 3166 3168 3169 3169 3170 3171 3173 3174 3173 3176 3178 3180 3181 3181 3186 3184 3185 3192 3195 3197 3199 3200 3201 3202 3204 3205 3206 3207 3208 3209 3211 3212 3213 3214
3158 3158 3158 3161 3163 3164 3165 3165 3166 3165 3164 3164 3165 3166 3167 3168 3169 3171 3172 3173 3174 3175 3176 3176 3175 3182 3183 3185 3186 3189 3190 3191 3195 3196 3199 3200 3202 3203 3205 3206 3207 3208 3209 3210 3212 3213 3214 3215 3216
3154 3154 3155 3160 3164 3165 3166 3166 3168 3168 3167 3167 3168 3169 3169 3170 3171 3173 3174 3176 3177 3178 3179 3181 3182 3185 3187 3188 3190 3192 3193 3195 3197 3199 3201 3203 3204 3206 3208 3209 3210 3211 3211 3213 3214 3215 3216 3217 3218
3153 3154 3155 3160 3163 3165 3165 3167 3168 3169 3170 3169 3169 3170 3171 3172 3173 3175 3177 3178 3180 3181 3182 3183 3185 3187 3189 3191 3192 3194 3196 3197 3200 3202 3204 3205 3207 3209 3210 3211 3212 3213 3214 3215 3215 3216 3218 3219 3221
3154 3156 3157 3159 3163 3165 3165 3167 3170 3172 3172 3172 3171 3172 3173 3174 3175 3177 3179 3180 3182 3184 3185 3185 3187 3189 3191 3193 3195 3196 3198 3200 3201 3203 3206 3208 3209 3210 3212 3213 3214 3216 3217 3217 3218 3219 3220 3222 3223
3155 3156 3158 3161 3164 3165 3167 3168 3171 3172 3174 3174 3174 3175 3175 3176 3177 3179 3181 3182 3184 3186 3186 3188 3189 3191 3193 3195 3197 3199 3201 3201 3203 3206 3207 3209 3211 3212 3214 3215 3216 3217 3219 3221 3221 3222 3223 3223 3224
3158 3157 3159 3160 3163 3165 3167 3168 3171 3173 3176 3176 3177 3178 3178 3178 3180 3182 3182 3183 3185 3187 3188 3189 3190 3192 3195 3197 3198 3200 3202 3204 3205 3208 3209 3210 3212 3214 3216 3217 3218 3220 3223 3223 3224 3224 3225 3226 3227
3160 3159 3160 3160 3162 3166 3168 3168 3171 3175 3176 3176 3178 3180 3180 3181 3182 3183 3184 3184 3185 3187 3189 3191 3193 3195 3197 3198 3200 3202 3204 3205 3208 3209 3211 3213 3214 3216 3218 3219 3221 3223 3223 3225 3226 3227 3228 3229 3231
3161 3160 3162 3161 3162 3164 3169 3170 3173 3176 3176 3177 3179 3181 3182 3183 3185 3185 3186 3186 3188 3189 3191 3193 3194 3197 3198 3199 3202 3204 3205 3206 3208 3209 3212 3213 3215 3218 3221 3222 3223 3224 3225 3227 3228 3230 3232 3233 3234
3163 3162 3164 3164 3165 3166 3169 3171 3173 3176 3176 3178 3180 3182 3184 3184 3186 3187 3188 3189 3190 3192 3193 3194 3195 3197 3199 3199 3202 3204 3205 3206 3208 3212 3213 3213 3216 3219 3222 3224 3225 3226 3227 3229 3230 3231 3233 3234 3235
3163 3164 3165 3166 3166 3168 3170 3170 3172 3175 3177 3178 3180 3181 3184 3186 3187 3187 3188 3191 3192 3193 3194 3195 3196 3197 3199 3201 3203 3205 3206 3207 3210 3212 3213 3215 3217 3220 3222 3224 3226 3227 3228 3230 3231 3232 3233 3234 3235
3163 3163 3165 3167 3169 3168 3170 3167 3170 3174 3177 3179 3180 3181 3183 3185 3186 3187 3189 3190 3193 3193 3194 3195 3196 3197 3199 3203 3204 3205 3207 3208 3210 3212 3214 3216 3218 3220 3222 3224 3226 3227 3229 3231 3232 3233 3233 3234 3235
3165 3165 3166 3167 3168 3168 3170 3171 3172 3174 3177 3177 3179 3182 3183 3185 3187 3188 3189 3190 3193 3194 3193 3194 3195 3197 3199 3201 3204 3206 3207 3209 3211 3213 3215 3216 3218 3219 3221 3223 3225 3227 3229 3230 3232 3233 3233 3234 3235
3166 3166 3166 3166 3168 3170 3170 3170 3171 3173 3174 3176 3178 3180 3183 3185 3187 3188 3189 3190 3192 3194 3194 3193 3195 3197 3200 3202 3204 3206 3207 3210 3212 3213 3214 3215 3216 3218 3220 3221 3223 3225 3227 3228 3231 3232 3233 3234 3235
3165 3165 3166 3167 3167 3169 3169 3170 3171 3173 3174 3176 3177 3179 3181 3183 3185 3187 3188 3189 3191 3193 3193 3193 3195 3197 3200 3202 3204 3206 3207 3209 3210 3212 3213 3214 3216 3218 3220 3221 3222 3224 3226 3228 3230 3231 3233 3234 3234
3165 3164 3165 3167 3167 3169 3170 3170 3169 3169 3170 3173 3175 3177 3179 3182 3184 3187 3188 3188 3190 3192 3193 3193 3196 3198 3199 3202 3204 3205 3207 3208 3210 3211 3213 3214 3216 3217 3219 3221 3221 3223 3225 3227 3229 3230 3232 3232 3232
3164 3164 3165 3167 3168 3169 3170 3170 3167 3167 3168 3168 3172 3174 3176 3180 3182 3185 3188 3187 3189 3190 3192 3192 3195 3197 3199 3201 3204 3205 3207 3208 3210 3211 3212 3213 3215 3216 3218 3219 3220 3222 3224 3227 3228 3229 3229 3230 3230
3164 3163 3164 3166 3168 3170 3170 3170 3167 3166 3165 3165 3167 3169 3173 3176 3179 3182 3186 3187 3188 3189 3190 3192 3193 3196 3197 3200 3203 3204 3206 3208 3209 3210 3212 3214 3216 3217 3217 3219 3220 3221 3224 3226 3227 3228 3229 3229 3229
3162 3162 3163 3166 3168 3169 3168 3170 3165 3164 3165 3164 3164 3166 3168 3172 3175 3179 3183 3186 3186 3187 3189 3190 3191 3194 3195 3198 3201 3203 3205 3208 3209 3210 3211 3213 3215 3216 3218 3219 3221 3221 3223 3225 3227 3227 3227 3227 3227
3162 3162 3164 3169 3170 3169 3167 3168 3163 3163 3162 3163 3163 3163 3164 3166 3170 3175 3178 3182 3184 3185 3187 3189 3190 3192 3193 3196 3198 3201 3204 3207 3209 3210 3211 3212 3214 3216 3218 3219 3220 3222 3224 3224 3225 3226 3226 3226 3226
3160 3161 3162 3168 3171 3165 3166 3164 3161 3160 3160 3159 3159 3159 3159 3161 3163 3168 3174 3177 3181 3184 3186 3187 3189 3190 3192 3194 3197 3199 3201 3204 3207 3209 3211 3213 3214 3214 3216 3218 3219 3221 3222 3223 3223 3223 3224 3224 3224
3159 3160 3161 3160 3164 3164 3162 3160 3159 3157 3157 3156 3155 3155 3152 3153 3155 3161 3168 3172 3176 3180 3184 3186 3186 3189 3191 3193 3196 3198 3200 3202 3205 3208 3209 3211 3213 3214 3215 3216 3218 3219 3220 3221 3221 3221 3222 3222 3222
3157 3159 3160 3160 3164 3165 3159 3157 3155 3154 3154 3154 3153 3151 3152 3152 3153 3157 3162 3168 3173 3177 3181 3184 3185 3187 3190 3191 3194 3196 3198 3200 3203 3205 3207 3209 3211 3213 3214 3215 3216 3218 3218 3219 3219 3219 3219 3219 3219
3157 3157 3158 3160 3161 3161 3162 3155 3153 3153 3153 3152 3150 3149 3150 3151 3152 3152 3157 3163 3168 3172 3176 3180 3182 3184 3186 3188 3191 3193 3196 3197 3199 3202 3204 3207 3208 3210 3212 3213 3215 3216 3217 3217 3217 3217 3217 3217 3217
3155 3155 3156 3156 3159 3158 3159 3154 3151 3152 3152 3151 3150 3148 3148 3148 3149 3150 3153 3159 3162 3168 3172 3176 3178 3181 3183 3186 3188 3189 3192 3194 3196 3198 3201 3203 3206 3207 3209 3210 3212 3213 3214 3215 3214 3215 3215 3215 3215
Wind_Speed
4 2 6 7 5 5 9 5 4 5 4 1 3 2 1 4 4 5 6 9 9 10 10 13 15 19 18 18 18 18 20 17 16 13 14 13 13 12 13 13 14 14 14 14 14 14 13 13 13
3 8 5 7 8 9 7 6 6 6 2 2 5 6 3 6 8 4 5 11 11 10 12 14 15 14 17 20 23 22 24 22 18 14 13 14 14 14 13 13 14 15 14 14 14 15 16 15 15
6 9 7 6 5 4 5 4 5 8 7 2 5 4 0 4 4 11 11 11 14 13 11 11 13 13 13 21 27 25 19 24 18 16 16 16 15 14 15 14 14 15 14 15 16 18 17 15 16
7 7 6 6 5 5 4 6 8 12 9 8 8 9 15 16 16 19 20 20 18 14 11 12 13 8 9 11 19 19 26 22 16 17 16 17 16 15 16 15 15 14 15 17 18 17 15 16 16
7 3 4 8 3 5 7 6 9 11 12 13 12 17 18 22 22 21 21 21 22 21 17 16 20 19 19 22 27 26 22 20 17 17 17 15 15 14 13 15 15 16 17 18 17 17 17 16 14
6 2 6 7 8 10 6 5 8 9 11 7 8 14 17 20 16 15 16 18 19 19 22 21 20 20 20 21 26 24 20 19 18 17 17 16 16 15 15 16 17 18 17 17 17 17 16 16 15
8 7 7 11 11 11 1 4 3 11 12 10 5 7 11 16 16 12 13 14 16 15 12 17 20 16 16 16 17 15 16 18 17 17 16 15 16 16 16 17 18 18 17 16 15 15 15 17 16
9 13 17 17 10 7 6 4 3 8 10 12 7 3 10 15 13 12 13 13 15 15 15 15 15 15 15 15 16 15 15 16 15 14 14 15 15 16 17 17 17 17 16 15 15 15 17 16 17
8 11 20 14 9 10 10 7 8 3 3 7 4 6 9 13 10 12 10 10 12 15 15 15 13 13 14 13 14 14 15 14 14 13 14 14 15 16 17 17 16 15 15 16 17 18 18 18 18
3 11 19 11 9 14 12 12 4 4 3 6 6 11 12 12 12 14 12 11 10 11 13 14 12 11 11 13 13 13 13 14 14 14 13 13 14 16 17 16 15 13 14 16 17 18 18 18 18
12 12 20 15 10 8 12 14 8 7 5 5 8 12 11 15 15 12 11 14 12 11 12 12 11 10 10 11 11 11 12 11 12 13 14 14 16 16 16 16 14 14 12 13 14 15 17 18 17
9 8 16 17 13 10 13 17 9 6 4 8 8 9 18 20 19 16 14 12 5 11 12 11 9 9 9 10 11 11 11 11 11 13 14 15 17 17 16 15 14 14 13 12 13 15 17 16 15
4 3 4 10 13 11 14 18 12 10 5 9 11 14 17 16 16 14 11 7 5 13 11 10 9 9 9 10 12 12 12 11 11 11 11 13 15 16 14 13 12 13 14 12 11 11 13 13 12
2 2 6 9 11 12 14 13 16 9 9 8 10 16 16 14 13 13 13 11 12 15 10 9 7 8 9 10 13 14 11 9 11 11 11 12 13 13 13 11 11 11 12 11 9 9 9 8 9
9 3 6 4 2 8 17 12 11 11 10 10 7 14 11 9 10 10 12 13 9 8 6 7 6 7 9 13 14 12 12 10 12 11 10 11 13 13 11 9 7 8 8 9 8 7 8 7 7
3 5 4 1 11 7 8 11 12 12 12 9 7 11 11 11 9 8 10 9 7 3 2 7 7 6 9 11 14 12 14 13 12 12 10 11 13 13 12 9 7 6 7 8 8 7 7 7 6
2 2 2 2 12 5 6 6 12 14 14 12 8 7 5 6 8 9 10 5 4 3 4 2 5 7 9 13 13 13 14 13 12 11 10 11 14 12 12 11 8 7 8 8 9 8 7 6 4
6 10 7 6 5 15 10 8 15 9 9 16 13 8 5 2 4 5 9 6 4 3 2 1 4 7 12 11 13 14 13 10 11 11 12 12 17 11 11 13 12 9 10 10 11 10 8 7 6
12 13 10 4 7 9 8 11 16 14 15 20 16 14 9 4 1 6 10 8 5 4 3 2 3 6 10 10 13 12 13 13 11 12 14 12 17 13 15 16 15 14 11 13 13 11 9 6 7
13 10 8 5 1 9 9 6 14 12 15 17 21 14 12 8 7 8 11 11 5 7 2 3 2 6 8 10 14 16 14 12 11 14 13 13 15 13 12 12 11 11 10 10 10 9 8 5 8
11 13 10 6 7 6 2 8 16 19 18 16 18 22 19 16 9 6 8 8 7 8 5 3 6 5 7 10 16 18 17 12 9 10 11 12 12 10 7 11 8 10 14 10 6 7 6 10 11
9 7 10 12 3 2 5 3 4 17 20 22 20 20 19 20 15 10 8 8 8 9 7 7 9 8 5 8 9 12 11 12 9 10 11 11 13 12 8 8 12 11 13 8 6 7 9 10 11
6 8 12 12 7 4 4 3 3 7 10 17 24 25 23 23 20 16 9 8 7 10 7 7 7 9 8 9 11 9 10 10 14 13 14 14 12 13 8 7 7 12 15 13 8 8 7 9 12
5 8 9 8 7 4 8 5 5 3 4 6 16 22 28 26 21 21 17 13 11 13 12 9 7 6 9 9 11 9 7 12 13 12 13 13 13 13 12 10 6 6 8 15 11 9 9 11 12
7 7 4 2 1 6 4 5 7 6 8 9 9 17 28 34 32 27 23 18 16 15 14 11 8 6 9 9 11 9 9 9 10 10 12 13 13 15 13 14 12 11 8 10 12 13 13 13 13
11 11 6 6 4 4 8 6 4 6 11 11 9 14 18 23 32 32 27 25 18 15 14 13 10 6 7 11 11 12 10 10 12 11 13 14 14 14 16 15 13 11 10 11 11 10 11 13 11
8 7 6 4 3 1 4 7 10 12 12 10 11 13 10 10 22 33 31 29 27 19 16 12 10 7 6 9 14 13 12 12 13 11 10 10 12 13 13 14 14 12 10 12 12 11 10 10 9
8 7 3 3 3 3 4 8 12 11 7 9 14 12 12 12 17 28 32 32 26 23 20 17 13 11 7 7 11 13 14 14 15 16 12 12 13 13 13 15 16 15 14 12 12 11 10 8 9
6 7 3 3 2 5 2 6 9 7 7 12 11 7 7 11 15 23 36 32 30 29 27 23 19 15 13 9 10 12 14 16 17 17 15 13 15 14 13 12 15 15 14 13 11 10 10 11 10
7 5 6 4 4 5 2 9 8 6 6 4 9 8 4 12 13 17 23 37 30 27 28 30 24 21 16 13 11 12 15 17 18 17 16 18 17 17 16 14 17 14 14 15 12 13 12 11 11
Wind_Direction
360 23 123 68 75 113 92 102 104 103 69 313 249 191 253 298 302 295 293 183 181 184 183 178 181 188 194 195 190 179 155 148 142 140 141 136 131 125 121 118 116 119 115 113 113 111 107 105 104
6 113 111 66 99 98 95 118 74 92 97 228 225 225 308 293 294 280 173 186 184 179 169 181 181 175 191 192 180 171 156 147 135 137 138 138 133 127 120 121 120 119 115 112 111 107 106 106 106
87 109 76 81 76 88 123 126 65 57 38 75 202 212 5 79 82 103 126 151 158 152 155 167 184 180 189 195 177 169 162 131 137 139 135 133 128 124 121 127 127 114 122 121 112 108 106 107 110
90 106 74 92 120 110 125 98 42 39 63 85 134 136 116 101 95 102 106 109 114 119 137 153 163 161 167 169 188 182 144 118 132 135 132 130 130 129 129 128 124 123 122 118 118 117 114 111 114
73 49 81 137 122 142 125 75 51 47 68 92 121 121 110 110 105 106 103 101 101 95 100 124 111 99 96 114 125 132 128 125 127 130 134 132 131 130 130 129 130 128 125 123 120 121 121 118 115
71 73 140 127 130 138 119 29 41 53 73 84 141 137 117 119 114 113 113 113 113 108 102 103 118 117 110 107 111 122 125 122 132 135 135 135 132 133 132 134 131 127 125 120 119 118 116 118 117
282 255 179 145 151 156 131 59 55 34 57 84 137 146 135 130 135 126 123 125 122 125 122 115 110 125 131 131 136 142 135 139 140 140 141 139 134 136 138 134 129 128 126 122 118 115 117 121 116
320 206 147 140 155 179 227 150 167 38 67 92 131 301 137 131 129 136 133 131 132 135 134 128 131 133 131 137 137 137 142 145 147 141 132 138 134 136 135 131 130 130 128 124 124 121 122 123 126
23 162 146 144 162 166 171 183 178 78 24 95 111 124 129 128 111 131 131 127 132 137 138 129 133 135 137 134 136 138 141 141 141 140 140 136 134 136 133 134 133 135 131 132 132 130 131 132 129
2 163 169 153 136 162 179 181 192 156 107 83 127 124 118 117 117 117 118 125 132 134 134 133 134 137 138 137 135 136 139 143 146 145 136 134 140 139 141 138 139 137 139 142 136 135 133 132 130
58 180 186 200 186 174 191 188 221 179 53 67 44 136 110 115 122 131 109 133 137 137 135 137 137 137 142 141 140 139 146 145 148 142 141 146 147 150 147 148 144 139 143 141 137 137 137 139 137
86 79 197 201 187 185 180 179 209 152 104 102 106 125 114 109 110 109 110 113 92 147 141 140 140 137 143 146 150 148 149 152 147 150 152 153 155 155 155 154 150 144 142 143 146 148 147 145 142
84 167 134 187 172 178 177 179 163 164 156 133 129 127 129 112 107 109 99 98 102 163 146 145 145 141 141 152 158 164 156 151 155 150 152 157 158 159 161 160 156 150 153 153 151 154 151 155 153
13 149 124 141 220 214 184 172 193 156 165 162 131 152 135 122 102 92 83 94 111 152 146 145 149 144 143 162 174 170 159 174 162 149 148 156 154 163 169 169 166 166 160 164 155 157 159 159 165
60 72 155 206 155 196 210 202 182 192 177 170 154 160 147 144 124 120 83 76 108 149 163 168 168 159 163 182 183 173 172 165 169 157 155 159 166 172 176 171 170 167 174 173 163 167 167 180 176
108 120 130 158 162 150 181 192 176 185 172 159 166 161 143 134 124 125 122 77 70 112 148 172 174 175 184 178 183 177 170 169 179 173 161 169 178 180 175 172 182 171 171 167 175 171 183 188 187
358 11 262 202 186 192 174 195 177 183 183 194 163 166 134 180 154 147 155 112 69 126 135 187 208 206 215 187 195 189 186 192 192 169 167 179 174 170 182 180 186 189 189 192 192 184 196 215 214
3 330 325 237 234 217 203 206 173 193 186 199 202 164 149 180 152 155 168 178 138 140 137 251 189 204 182 181 191 190 195 193 180 171 175 177 183 183 190 186 189 194 207 215 213 212 211 227 250
317 314 300 204 223 203 215 226 224 215 204 216 204 207 200 148 237 213 193 188 200 198 124 70 166 208 204 215 203 196 178 188 180 184 182 183 183 190 183 192 199 208 226 219 214 224 227 242 268
299 292 259 223 207 207 235 254 220 215 219 218 222 217 222 208 226 233 213 207 190 185 208 77 213 204 197 198 189 191 201 194 196 199 196 196 192 202 211 189 200 227 228 209 217 230 242 270 304
286 264 245 246 228 201 276 235 232 243 245 242 223 228 230 228 221 228 226 223 219 186 171 164 177 220 196 197 203 198 210 215 200 201 205 200 192 191 212 216 234 243 213 198 234 254 264 287 285
262 244 238 250 249 258 227 289 260 244 250 244 225 231 240 224 225 222 223 211 204 167 189 171 181 195 205 214 221 205 219 222 207 190 196 214 202 206 218 249 232 217 195 200 243 261 263 277 288
235 267 235 229 235 293 277 284 285 298 265 254 243 247 231 234 233 228 216 203 192 195 181 169 174 197 195 209 212 201 205 214 199 194 200 209 194 207 220 160 182 204 215 218 243 255 273 272 272
249 201 173 200 241 296 270 235 275 240 256 257 243 245 238 232 244 231 223 219 209 198 193 181 157 192 197 204 207 202 206 221 206 199 212 220 213 212 203 205 178 174 208 219 250 257 268 282 279
186 197 86 41 17 225 237 235 270 261 272 284 261 241 237 236 242 226 212 213 201 203 198 190 180 174 198 206 204 206 201 213 213 207 211 219 216 214 212 216 215 210 216 218 242 256 268 274 275
222 205 175 189 194 235 215 243 285 253 288 291 275 250 253 256 235 222 214 219 212 213 209 201 196 178 194 216 220 221 216 215 220 224 216 217 217 212 223 225 226 232 246 254 252 257 267 270 273
207 200 203 139 124 255 236 256 262 276 287 306 309 282 273 273 253 222 223 222 220 212 213 203 192 196 189 203 218 219 215 213 211 223 220 211 217 220 221 230 232 236 236 245 251 258 263 270 269
221 194 171 195 142 257 264 262 254 271 282 305 326 301 269 265 246 244 218 218 215 207 209 211 204 199 195 208 218 224 215 213 216 227 235 233 230 220 215 226 228 231 236 244 247 253 266 264 274
160 186 218 184 202 167 262 268 280 244 274 319 345 350 302 262 278 245 225 220 216 212 212 213 210 205 205 210 221 227 228 222 220 222 221 225 231 233 224 228 225 228 243 242 245 254 248 263 269
192 207 219 197 223 214 231 289 286 270 274 334 336 321 316 268 262 237 236 226 217 220 220 220 219 215 215 220 231 233 230 230 230 226 223 223 227 232 230 230 237 249 235 251 247 247 248 252 264